Wetterdaten: Freitag, 10.04.2015
Datum Zeit Temp. A. Feuchte A. Luftdruck Regen Wind Richtung Richtung Sonnenschein ET UV Solar Taupunkt Windchill Windben Empfang
10.04.2015 00:00 6,6 C 69 % 1025,3 hPa 0,0 l/m 0,0 km/h (0 Bft) SW 215 0 min 0,000 mm 0,0 UV-I 0 W/m 1,3 C 6,6 C 0,0 km/h (0 Bft) 0,00 %
10.04.2015 00:15 5,9 C 71 % 1025,2 hPa 0,0 l/m 0,0 km/h (0 Bft) S 189 0 min 0,000 mm 0,0 UV-I 0 W/m 1,1 C 5,9 C 0,0 km/h (0 Bft) 0,00 %
10.04.2015 00:30 5,6 C 72 % 1025,3 hPa 0,0 l/m 0,0 km/h (0 Bft) S-SW 199 0 min 0,000 mm 0,0 UV-I 0 W/m 1,0 C 5,6 C 0,0 km/h (0 Bft) 0,00 %
10.04.2015 00:45 5,3 C 74 % 1025,6 hPa 0,0 l/m 0,0 km/h (0 Bft) S-SW 208 0 min 0,000 mm 0,0 UV-I 0 W/m 1,0 C 5,3 C 0,0 km/h (0 Bft) 0,00 %
10.04.2015 01:00 4,9 C 76 % 1025,8 hPa 0,0 l/m 0,0 km/h (0 Bft) S 182 0 min 0,000 mm 0,0 UV-I 0 W/m 1,0 C 4,9 C 0,0 km/h (0 Bft) 0,00 %
10.04.2015 01:15 4,6 C 78 % 1025,8 hPa 0,0 l/m 0,0 km/h (0 Bft) S-SW 197 0 min 0,000 mm 0,0 UV-I 0 W/m 1,1 C 4,6 C 0,0 km/h (0 Bft) 0,00 %
10.04.2015 01:30 4,6 C 78 % 1025,7 hPa 0,0 l/m 0,0 km/h (0 Bft) S-SW 202 0 min 0,000 mm 0,0 UV-I 0 W/m 1,1 C 4,6 C 0,0 km/h (0 Bft) 0,00 %
10.04.2015 01:45 4,5 C 79 % 1025,7 hPa 0,0 l/m 0,0 km/h (0 Bft) S 184 0 min 0,000 mm 0,0 UV-I 0 W/m 1,2 C 4,5 C 0,0 km/h (0 Bft) 0,00 %
10.04.2015 02:00 4,3 C 81 % 1025,6 hPa 0,0 l/m 0,0 km/h (0 Bft) S-SW 199 0 min 0,000 mm 0,0 UV-I 0 W/m 1,3 C 4,3 C 0,0 km/h (0 Bft) 0,00 %
10.04.2015 02:15 4,2 C 81 % 1025,9 hPa 0,0 l/m 0,0 km/h (0 Bft) S 185 0 min 0,000 mm 0,0 UV-I 0 W/m 1,2 C 4,2 C 0,0 km/h (0 Bft) 0,00 %
10.04.2015 02:30 4,1 C 83 % 1025,7 hPa 0,0 l/m 0,0 km/h (0 Bft) S 185 0 min 0,000 mm 0,0 UV-I 0 W/m 1,5 C 4,1 C 0,0 km/h (0 Bft) 0,00 %
10.04.2015 02:45 4,2 C 85 % 1025,7 hPa 0,0 l/m 0,0 km/h (0 Bft) S 189 0 min 0,000 mm 0,0 UV-I 0 W/m 1,9 C 4,2 C 0,0 km/h (0 Bft) 0,00 %
10.04.2015 03:00 4,0 C 85 % 1025,7 hPa 0,0 l/m 0,0 km/h (0 Bft) S-SW 207 0 min 0,000 mm 0,0 UV-I 0 W/m 1,7 C 4,0 C 0,0 km/h (0 Bft) 0,00 %
10.04.2015 03:15 3,9 C 86 % 1025,9 hPa 0,0 l/m 0,0 km/h (0 Bft) S-SW 203 0 min 0,000 mm 0,0 UV-I 0 W/m 1,8 C 3,9 C 0,0 km/h (0 Bft) 0,00 %
10.04.2015 03:30 4,0 C 87 % 1025,7 hPa 0,0 l/m 0,0 km/h (0 Bft) S-SW 203 0 min 0,000 mm 0,0 UV-I 0 W/m 2,0 C 4,0 C 0,0 km/h (0 Bft) 0,00 %
10.04.2015 03:45 4,0 C 87 % 1025,7 hPa 0,0 l/m 0,0 km/h (0 Bft) S 175 0 min 0,000 mm 0,0 UV-I 0 W/m 2,0 C 4,0 C 0,0 km/h (0 Bft) 0,00 %
10.04.2015 04:00 4,1 C 87 % 1025,6 hPa 0,0 l/m 0,0 km/h (0 Bft) S 187 0 min 0,000 mm 0,0 UV-I 0 W/m 2,1 C 4,1 C 0,0 km/h (0 Bft) 0,00 %
10.04.2015 04:15 3,6 C 88 % 1025,6 hPa 0,0 l/m 0,0 km/h (0 Bft) S 172 0 min 0,000 mm 0,0 UV-I 0 W/m 1,8 C 3,6 C 0,0 km/h (0 Bft) 0,00 %
10.04.2015 04:30 3,9 C 88 % 1025,5 hPa 0,0 l/m 0,0 km/h (0 Bft) S 183 0 min 0,000 mm 0,0 UV-I 0 W/m 2,1 C 3,9 C 0,0 km/h (0 Bft) 0,00 %
10.04.2015 04:45 4,0 C 88 % 1025,3 hPa 0,0 l/m 0,0 km/h (0 Bft) S-SW 201 0 min 0,000 mm 0,0 UV-I 0 W/m 2,2 C 4,0 C 0,0 km/h (0 Bft) 0,00 %
10.04.2015 05:00 4,0 C 88 % 1025,4 hPa 0,0 l/m 0,0 km/h (0 Bft) S-SW 192 0 min 0,000 mm 0,0 UV-I 0 W/m 2,2 C 4,0 C 0,0 km/h (0 Bft) 0,00 %
10.04.2015 05:15 3,7 C 88 % 1025,4 hPa 0,0 l/m 0,0 km/h (0 Bft) S 189 0 min 0,000 mm 0,0 UV-I 0 W/m 1,9 C 3,7 C 0,0 km/h (0 Bft) 0,00 %
10.04.2015 05:30 3,4 C 89 % 1025,6 hPa 0,0 l/m 0,0 km/h (0 Bft) S-SW 201 0 min 0,000 mm 0,0 UV-I 0 W/m 1,8 C 3,4 C 0,0 km/h (0 Bft) 0,00 %
10.04.2015 05:45 3,3 C 89 % 1025,5 hPa 0,0 l/m 0,0 km/h (0 Bft) S-SW 201 0 min 0,000 mm 0,0 UV-I 0 W/m 1,7 C 3,3 C 0,0 km/h (0 Bft) 0,00 %
10.04.2015 06:00 3,0 C 89 % 1025,7 hPa 0,0 l/m 0,0 km/h (0 Bft) S-SW 199 0 min 0,000 mm 0,0 UV-I 0 W/m 1,4 C 3,0 C 0,0 km/h (0 Bft) 0,00 %
10.04.2015 06:15 2,7 C 89 % 1025,6 hPa 0,0 l/m 0,0 km/h (0 Bft) S 187 0 min 0,000 mm 0,0 UV-I 0 W/m 1,1 C 2,7 C 0,0 km/h (0 Bft) 0,00 %
10.04.2015 06:30 3,1 C 90 % 1025,4 hPa 0,0 l/m 0,0 km/h (0 Bft) S 191 0 min 0,000 mm 0,0 UV-I 2 W/m 1,6 C 3,1 C 0,0 km/h (0 Bft) 0,00 %
10.04.2015 06:45 3,2 C 90 % 1025,8 hPa 0,0 l/m 0,0 km/h (0 Bft) S-SW 198 0 min 0,000 mm 0,0 UV-I 17 W/m 1,7 C 3,2 C 0,0 km/h (0 Bft) 0,00 %
10.04.2015 07:00 3,4 C 89 % 1025,8 hPa 0,0 l/m 0,0 km/h (0 Bft) S 191 0 min 0,000 mm 0,0 UV-I 34 W/m 1,8 C 3,4 C 0,0 km/h (0 Bft) 0,00 %
10.04.2015 07:15 3,8 C 89 % 1025,7 hPa 0,0 l/m 0,0 km/h (0 Bft) S 190 0 min 0,000 mm 0,0 UV-I 49 W/m 2,2 C 3,8 C 0,0 km/h (0 Bft) 0,00 %
10.04.2015 07:30 4,5 C 89 % 1025,7 hPa 0,0 l/m 0,0 km/h (0 Bft) S 190 0 min 0,000 mm 1,0 UV-I 85 W/m 2,8 C 4,5 C 0,0 km/h (0 Bft) 0,00 %
10.04.2015 07:45 5,8 C 88 % 1025,4 hPa 0,0 l/m 0,0 km/h (0 Bft) S 190 15 min 0,000 mm 1,0 UV-I 121 W/m 4,0 C 5,8 C 0,0 km/h (0 Bft) 0,00 %
10.04.2015 08:00 7,0 C 83 % 1025,3 hPa 0,0 l/m 0,0 km/h (0 Bft) S 190 0 min 0,000 mm 1,0 UV-I 123 W/m 4,3 C 7,0 C 0,0 km/h (0 Bft) 0,00 %
10.04.2015 08:15 7,4 C 75 % 1025,2 hPa 0,0 l/m 0,0 km/h (0 Bft) S 190 0 min 0,000 mm 1,0 UV-I 134 W/m 3,3 C 7,4 C 0,0 km/h (0 Bft) 0,00 %
10.04.2015 08:30 7,8 C 71 % 1025,1 hPa 0,0 l/m 0,0 km/h (0 Bft) S 179 0 min 0,000 mm 1,0 UV-I 174 W/m 2,9 C 7,8 C 0,0 km/h (0 Bft) 0,00 %
10.04.2015 08:45 8,0 C 71 % 1025,0 hPa 0,0 l/m 0,0 km/h (0 Bft) S-SO 155 0 min 0,000 mm 2,0 UV-I 161 W/m 3,1 C 8,0 C 0,0 km/h (0 Bft) 0,00 %
10.04.2015 09:00 8,5 C 67 % 1024,7 hPa 0,0 l/m 0,0 km/h (0 Bft) SO 128 0 min 0,000 mm 2,0 UV-I 200 W/m 2,7 C 8,5 C 0,0 km/h (0 Bft) 0,00 %
10.04.2015 09:15 9,4 C 64 % 1024,5 hPa 0,0 l/m 0,0 km/h (0 Bft) S-SO 147 0 min 0,000 mm 2,0 UV-I 240 W/m 2,9 C 9,4 C 0,0 km/h (0 Bft) 0,00 %
10.04.2015 09:30 10,1 C 61 % 1024,5 hPa 0,0 l/m 0,0 km/h (0 Bft) SO 130 0 min 0,000 mm 2,0 UV-I 155 W/m 2,9 C 10,1 C 0,0 km/h (0 Bft) 0,00 %
10.04.2015 09:45 10,4 C 60 % 1024,2 hPa 0,0 l/m 0,0 km/h (0 Bft) SO 137 0 min 0,000 mm 2,0 UV-I 167 W/m 3,0 C 10,4 C 0,0 km/h (0 Bft) 0,00 %
10.04.2015 10:00 10,5 C 60 % 1024,1 hPa 0,0 l/m 0,7 km/h (0 Bft) O 83 0 min 0,000 mm 3,0 UV-I 295 W/m 3,1 C 10,5 C 4,0 km/h (1 Bft) 0,00 %
10.04.2015 10:15 11,4 C 59 % 1024,2 hPa 0,0 l/m 0,0 km/h (0 Bft) O-SO 121 0 min 0,000 mm 3,0 UV-I 320 W/m 3,7 C 11,4 C 0,0 km/h (0 Bft) 0,00 %
10.04.2015 10:30 11,8 C 58 % 1024,0 hPa 0,0 l/m 0,0 km/h (0 Bft) S-SO 167 15 min 0,000 mm 3,0 UV-I 347 W/m 3,8 C 11,8 C 0,0 km/h (0 Bft) 0,00 %
10.04.2015 10:45 12,4 C 58 % 1023,8 hPa 0,0 l/m 4,0 km/h (1 Bft) O-SO 108 15 min 0,000 mm 4,0 UV-I 380 W/m 4,4 C 12,4 C 4,0 km/h (1 Bft) 0,00 %
10.04.2015 11:00 12,7 C 55 % 1023,5 hPa 0,0 l/m 4,0 km/h (1 Bft) O-SO 104 15 min 0,000 mm 4,0 UV-I 425 W/m 3,9 C 12,7 C 7,9 km/h (2 Bft) 0,00 %
10.04.2015 11:15 13,2 C 54 % 1023,5 hPa 0,0 l/m 5,8 km/h (2 Bft) SO 128 15 min 0,000 mm 4,0 UV-I 447 W/m 4,1 C 13,2 C 7,9 km/h (2 Bft) 0,00 %
10.04.2015 11:30 14,0 C 53 % 1023,2 hPa 0,0 l/m 0,7 km/h (0 Bft) O-SO 104 15 min 0,000 mm 4,0 UV-I 483 W/m 4,6 C 14,0 C 4,0 km/h (1 Bft) 0,00 %
10.04.2015 11:45 14,5 C 51 % 1023,2 hPa 0,0 l/m 0,0 km/h (0 Bft) O-SO 118 15 min 0,000 mm 4,0 UV-I 520 W/m 4,5 C 14,5 C 0,0 km/h (0 Bft) 0,00 %
10.04.2015 12:00 15,2 C 50 % 1022,7 hPa 0,0 l/m 0,0 km/h (0 Bft) S 173 15 min 0,000 mm 5,0 UV-I 556 W/m 4,8 C 15,2 C 0,0 km/h (0 Bft) 0,00 %
10.04.2015 12:15 15,4 C 49 % 1022,5 hPa 0,0 l/m 0,0 km/h (0 Bft) W-SW 256 15 min 0,000 mm 5,0 UV-I 595 W/m 4,7 C 15,4 C 0,0 km/h (0 Bft) 0,00 %
10.04.2015 12:30 15,7 C 49 % 1022,2 hPa 0,0 l/m 0,0 km/h (0 Bft) SO 144 15 min 0,000 mm 5,0 UV-I 624 W/m 5,0 C 15,7 C 0,0 km/h (0 Bft) 0,00 %
10.04.2015 12:45 16,0 C 43 % 1022,3 hPa 0,0 l/m 0,0 km/h (0 Bft) SO 144 15 min 0,000 mm 5,0 UV-I 620 W/m 3,4 C 16,0 C 0,0 km/h (0 Bft) 0,00 %
10.04.2015 13:00 16,3 C 46 % 1022,0 hPa 0,0 l/m 0,0 km/h (0 Bft) W 274 15 min 0,000 mm 5,0 UV-I 650 W/m 4,7 C 16,3 C 0,0 km/h (0 Bft) 0,00 %
10.04.2015 13:15 16,8 C 42 % 1021,8 hPa 0,0 l/m 4,3 km/h (1 Bft) O 88 15 min 0,000 mm 5,0 UV-I 653 W/m 3,8 C 16,8 C 7,9 km/h (2 Bft) 0,00 %
10.04.2015 13:30 17,3 C 43 % 1021,6 hPa 0,0 l/m 5,8 km/h (2 Bft) O 99 15 min 0,000 mm 5,0 UV-I 668 W/m 4,6 C 17,3 C 7,9 km/h (2 Bft) 0,00 %
10.04.2015 13:45 17,7 C 42 % 1021,3 hPa 0,0 l/m 7,2 km/h (2 Bft) O-SO 112 15 min 0,000 mm 5,0 UV-I 690 W/m 4,6 C 17,3 C 11,9 km/h (2 Bft) 0,00 %
10.04.2015 14:00 17,8 C 42 % 1021,1 hPa 0,0 l/m 2,2 km/h (1 Bft) W 271 15 min 0,000 mm 5,0 UV-I 619 W/m 4,7 C 17,8 C 4,0 km/h (1 Bft) 0,00 %
10.04.2015 14:15 18,3 C 37 % 1020,9 hPa 0,0 l/m 0,0 km/h (0 Bft) SW 216 15 min 0,000 mm 5,0 UV-I 642 W/m 3,4 C 18,3 C 0,0 km/h (0 Bft) 0,00 %
10.04.2015 14:30 18,9 C 36 % 1020,5 hPa 0,0 l/m 0,7 km/h (0 Bft) N-NO 18 15 min 0,000 mm 2,0 UV-I 724 W/m 3,5 C 18,9 C 4,0 km/h (1 Bft) 0,00 %
10.04.2015 14:45 19,4 C 34 % 1020,3 hPa 0,0 l/m 4,0 km/h (1 Bft) O-SO 109 15 min 0,000 mm 2,0 UV-I 745 W/m 3,1 C 19,4 C 7,9 km/h (2 Bft) 0,00 %
10.04.2015 15:00 19,6 C 31 % 1020,1 hPa 0,0 l/m 0,0 km/h (0 Bft) S 176 15 min 0,000 mm 2,0 UV-I 731 W/m 2,0 C 19,6 C 0,0 km/h (0 Bft) 0,00 %
10.04.2015 15:15 19,8 C 35 % 1019,8 hPa 0,0 l/m 5,4 km/h (1 Bft) O 98 15 min 0,000 mm 2,0 UV-I 701 W/m 3,9 C 19,8 C 7,9 km/h (2 Bft) 0,00 %
10.04.2015 15:30 19,5 C 32 % 1019,6 hPa 0,0 l/m 0,0 km/h (0 Bft) O-SO 104 15 min 0,000 mm 2,0 UV-I 712 W/m 2,4 C 19,5 C 0,0 km/h (0 Bft) 0,00 %
10.04.2015 15:45 19,5 C 32 % 1019,5 hPa 0,0 l/m 0,0 km/h (0 Bft) O-SO 109 15 min 0,000 mm 2,0 UV-I 705 W/m 2,4 C 19,5 C 0,0 km/h (0 Bft) 0,00 %
10.04.2015 16:00 19,6 C 31 % 1019,2 hPa 0,0 l/m 3,2 km/h (1 Bft) W 265 15 min 0,000 mm 2,0 UV-I 700 W/m 2,0 C 19,6 C 4,0 km/h (1 Bft) 0,00 %
10.04.2015 16:15 19,4 C 32 % 1019,2 hPa 0,0 l/m 0,4 km/h (0 Bft) N-NW 348 15 min 0,000 mm 2,0 UV-I 695 W/m 2,3 C 19,4 C 4,0 km/h (1 Bft) 0,00 %
10.04.2015 16:30 19,8 C 32 % 1019,1 hPa 0,0 l/m 0,0 km/h (0 Bft) S 178 15 min 0,000 mm 2,0 UV-I 690 W/m 2,6 C 19,8 C 0,0 km/h (0 Bft) 0,00 %
10.04.2015 16:45 19,7 C 32 % 1018,8 hPa 0,0 l/m 0,7 km/h (0 Bft) NO 46 15 min 0,000 mm 2,0 UV-I 685 W/m 2,5 C 19,7 C 4,0 km/h (1 Bft) 0,00 %
10.04.2015 17:00 19,7 C 32 % 1018,6 hPa 0,0 l/m 0,0 km/h (0 Bft) S 175 15 min 0,000 mm 2,0 UV-I 680 W/m 2,5 C 19,7 C 0,0 km/h (0 Bft) 0,00 %
10.04.2015 17:15 20,0 C 31 % 1018,6 hPa 0,0 l/m 1,8 km/h (1 Bft) O-SO 114 15 min 0,000 mm 1,0 UV-I 550 W/m 2,4 C 20,0 C 4,0 km/h (1 Bft) 0,00 %
10.04.2015 17:30 20,0 C 34 % 1018,3 hPa 0,0 l/m 2,2 km/h (1 Bft) O-SO 110 15 min 0,000 mm 1,0 UV-I 473 W/m 3,7 C 20,0 C 4,0 km/h (1 Bft) 0,00 %
10.04.2015 17:45 19,8 C 32 % 1018,2 hPa 0,0 l/m 0,0 km/h (0 Bft) S 185 15 min 0,000 mm 1,0 UV-I 440 W/m 2,6 C 19,8 C 0,0 km/h (0 Bft) 0,00 %
10.04.2015 18:00 19,8 C 31 % 1018,4 hPa 0,0 l/m 0,0 km/h (0 Bft) O 85 15 min 0,000 mm 1,0 UV-I 382 W/m 2,2 C 19,8 C 0,0 km/h (0 Bft) 0,00 %
10.04.2015 18:15 19,6 C 34 % 1018,0 hPa 0,0 l/m 4,7 km/h (1 Bft) O 92 15 min 0,000 mm 1,0 UV-I 376 W/m 3,3 C 19,6 C 7,9 km/h (2 Bft) 0,00 %
10.04.2015 18:30 19,1 C 35 % 1018,1 hPa 0,0 l/m 0,0 km/h (0 Bft) N 355 15 min 0,000 mm 1,0 UV-I 320 W/m 3,3 C 19,1 C 0,0 km/h (0 Bft) 0,00 %
10.04.2015 18:45 18,4 C 36 % 1017,9 hPa 0,0 l/m 0,0 km/h (0 Bft) S 175 15 min 0,000 mm 1,0 UV-I 135 W/m 3,1 C 18,4 C 0,0 km/h (0 Bft) 0,00 %
10.04.2015 19:00 18,1 C 36 % 1017,9 hPa 0,0 l/m 0,0 km/h (0 Bft) S 188 15 min 0,000 mm 0,0 UV-I 123 W/m 2,8 C 18,1 C 0,0 km/h (0 Bft) 0,00 %
10.04.2015 19:15 17,5 C 39 % 1018,3 hPa 0,0 l/m 0,0 km/h (0 Bft) S 189 15 min 0,000 mm 0,0 UV-I 48 W/m 3,4 C 17,5 C 0,0 km/h (0 Bft) 0,00 %
10.04.2015 19:30 16,5 C 42 % 1018,3 hPa 0,0 l/m 0,0 km/h (0 Bft) S 177 0 min 0,000 mm 0,0 UV-I 12 W/m 3,5 C 16,5 C 0,0 km/h (0 Bft) 0,00 %
10.04.2015 19:45 15,6 C 42 % 1018,4 hPa 0,0 l/m 0,0 km/h (0 Bft) S 185 0 min 0,000 mm 0,0 UV-I 0 W/m 2,7 C 15,6 C 0,0 km/h (0 Bft) 0,00 %
10.04.2015 20:00 14,8 C 44 % 1018,5 hPa 0,0 l/m 0,0 km/h (0 Bft) S 184 0 min 0,000 mm 0,0 UV-I 0 W/m 2,7 C 14,8 C 0,0 km/h (0 Bft) 0,00 %
10.04.2015 20:15 14,3 C 46 % 1018,6 hPa 0,0 l/m 0,0 km/h (0 Bft) S-SW 196 0 min 0,000 mm 0,0 UV-I 0 W/m 2,8 C 14,3 C 0,0 km/h (0 Bft) 0,00 %
10.04.2015 20:30 12,9 C 53 % 1018,9 hPa 0,0 l/m 0,0 km/h (0 Bft) S 181 0 min 0,000 mm 0,0 UV-I 0 W/m 3,6 C 12,9 C 0,0 km/h (0 Bft) 0,00 %
10.04.2015 20:45 12,6 C 55 % 1019,0 hPa 0,0 l/m 0,0 km/h (0 Bft) S-SW 204 0 min 0,000 mm 0,0 UV-I 0 W/m 3,8 C 12,6 C 0,0 km/h (0 Bft) 0,00 %
10.04.2015 21:00 12,0 C 56 % 1019,1 hPa 0,0 l/m 0,0 km/h (0 Bft) S 188 0 min 0,000 mm 0,0 UV-I 0 W/m 3,5 C 12,0 C 0,0 km/h (0 Bft) 0,00 %
10.04.2015 21:15 12,2 C 55 % 1019,0 hPa 0,0 l/m 0,0 km/h (0 Bft) S-SW 199 0 min 0,000 mm 0,0 UV-I 0 W/m 3,4 C 12,2 C 0,0 km/h (0 Bft) 0,00 %
10.04.2015 21:30 12,2 C 53 % 1018,7 hPa 0,0 l/m 0,0 km/h (0 Bft) S 188 0 min 0,000 mm 0,0 UV-I 0 W/m 2,9 C 12,2 C 0,0 km/h (0 Bft) 0,00 %
10.04.2015 21:45 11,6 C 59 % 1019,1 hPa 0,0 l/m 0,0 km/h (0 Bft) S-SW 202 0 min 0,000 mm 0,0 UV-I 0 W/m 3,9 C 11,6 C 0,0 km/h (0 Bft) 0,00 %
10.04.2015 22:00 10,8 C 59 % 1019,0 hPa 0,0 l/m 0,0 km/h (0 Bft) S 181 0 min 0,000 mm 0,0 UV-I 0 W/m 3,1 C 10,8 C 0,0 km/h (0 Bft) 0,00 %
10.04.2015 22:15 10,3 C 62 % 1019,0 hPa 0,0 l/m 0,0 km/h (0 Bft) S 187 0 min 0,000 mm 0,0 UV-I 0 W/m 3,3 C 10,3 C 0,0 km/h (0 Bft) 0,00 %
10.04.2015 22:30 10,3 C 63 % 1019,2 hPa 0,0 l/m 0,0 km/h (0 Bft) S 180 0 min 0,000 mm 0,0 UV-I 0 W/m 3,6 C 10,3 C 0,0 km/h (0 Bft) 0,00 %
10.04.2015 22:45 10,1 C 65 % 1019,1 hPa 0,0 l/m 0,0 km/h (0 Bft) S 184 0 min 0,000 mm 0,0 UV-I 0 W/m 3,8 C 10,1 C 0,0 km/h (0 Bft) 0,00 %
10.04.2015 23:00 9,9 C 66 % 1019,3 hPa 0,0 l/m 0,0 km/h (0 Bft) S 184 0 min 0,000 mm 0,0 UV-I 0 W/m 3,9 C 9,9 C 0,0 km/h (0 Bft) 0,00 %
10.04.2015 23:15 9,3 C 72 % 1019,3 hPa 0,0 l/m 0,0 km/h (0 Bft) S-SW 198 0 min 0,000 mm 0,0 UV-I 0 W/m 4,5 C 9,3 C 0,0 km/h (0 Bft) 0,00 %
10.04.2015 23:30 8,8 C 75 % 1019,5 hPa 0,0 l/m 0,0 km/h (0 Bft) S 184 0 min 0,000 mm 0,0 UV-I 0 W/m 4,6 C 8,8 C 0,0 km/h (0 Bft) 0,00 %
10.04.2015 23:45 8,7 C 74 % 1019,6 hPa 0,0 l/m 0,0 km/h (0 Bft) S 188 0 min 0,000 mm 0,0 UV-I 0 W/m 4,3 C 8,7 C 0,0 km/h (0 Bft) 0,00 %
_ Min-Zeit 06:15 15:00 18:45 - 00:00 - - - - - - 00:30 06:15 00:00 00:00
Minimum _ 2,7 C 31 % 1017,9 hPa - 0,0 km/h (0 Bft) - - - - - - 1,0 C 2,7 C 0,0 km/h (0 Bft) 0,00 %
_ Max-Zeit 17:15 06:30 02:15 00:00 13:45 - - 07:45 00:00 12:00 14:45 12:30 17:15 13:45 00:00
Maximum _ 20,0 C 90 % 1025,9 hPa 0,0 l/m 7,2 km/h
O-SO (2 Bft)
- - 15 min 0,000 mm 5,0 UV-I 745 W/m 5,0 C 20,0 C 11,9 km/h
O-SO (2 Bft)
0,00 %
Durchschnitt _ 11,2 C 61 % 1022,3 hPa #0,0 l/m 0,6 km/h (0 Bft) O-SO - #9:15 h #0,000 mm 2,7 UV-I 412 W/m 2,9 C 11,2 C 1,1 km/h (1 Bft) 0,00 %